Погода в Сомове

Россия / Орловская область     52°26′37″N   35°51′43″E
темп.,
°C
ветер,
м/с
пор.,
м/с
влажн.,
%
обл.,
%
осадки,
мм/ч
давл.,
гПа
погр.,
м
18 апреля, вс
вс1800:00+5в2293100 0.1 101757
03:00+5юв3694100 0.4 1017210
06:00+5ю2492100 0.1 1017123
09:00+7юв237526 0.2 1017730
12:00+8всв336987 0.9 1018836
15:00+10юв3362100 2.2 10181100
18:00+8ююв1275100 1.3 1018368
21:00+6в3587100 1.6 1018496
19 апреля, пн
пн1900:00+5в1494100 4.0 1018352
03:00+4св4497100 4.8 1018657
06:00+5с3798100 1.2 1017546
09:00+5всв4792100 1.6 1018806
12:00+7всв468445 0.3 1017707
15:00+9св467995 0.9 1017678
18:00+7ссв699095 0.4 1017594
21:00+6св61193100 0.5 1018524
20 апреля, вт
вт2000:00+5ссв5895100 0.0 1016370
03:00+5св4796100 0.0 1016348
06:00+5в35934 0.0 1015148
09:00+7в5791100 0.0 1014448
12:00+11в81076100 0.4 10111094
15:00+9всв81284100 0.8 1009964
18:00+6всв101593100 6.3 1005940
21:00+6св101894100 16.5 9991231
21 апреля, ср
ср2100:00+9в61392100 1.8 994583
03:00+9вюв91589100 2.8 9941050
06:00+4ююв81296100 0.2 995684
09:00+3зюз101596100 0.4 998837
12:00+4зюз91492100 0.3 1005922
15:00+6зюз81287100 0.3 10091240
18:00+6юз71285100 0.1 1013700
21:00+6ююз51188100 0.1 1015398
22 апреля, чт
чт2200:00+5ююз4888100 0.1 1017225
03:00+5юз3885100 0.1 1019222
06:00+5ю3583100 0.0 102097
09:00+8ююз467493 0.0 1022365
12:00+11ююз566262 0.0 10231195
15:00+11ююз576613 0.3 1023908
18:00+11ююз46705 0.5 1023397
21:00+8ю347877 0.9 102569